Weather History for Walhalla, ND

Change the Weather History Date:

Monday, February 25, 2013

  Actual Average (KGAF) Record (KGAF)
Temperature  
Mean Temperature 22 °F -  
Max Temperature 37 °F 28 °F 65 °F (1958)
Min Temperature 8 °F 7 °F -34 °F (1950)
Degree Days  
Heating Degree Days 42    
Moisture  
Dew Point 18 °F    
Average Humidity 80    
Maximum Humidity 100    
Minimum Humidity 44    
Precipitation  
Precipitation 0.00 in - - ()
Sea Level Pressure  
Sea Level Pressure 29.93 in    
Wind  
Wind Speed 5 mph (SSW)    
Max Wind Speed 16 mph    
Max Gust Speed 22 mph    
Visibility 10 miles    
Events      
Averages and records for this station are not official NWS values.
T = Trace of Precipitation, MM = Missing Value Source: NWS Daily Summary

Daily Weather History Graph

Daily Weather History Graph

Search for Another Location

Airport:

Trip Planner

Search our weather history database for the weather conditions in past years. The results will help you decide how hot, cold, wet, or windy it might be!

Date:

Astronomy

Feb. 25, 2013 Rise Set
Actual Time 7:20 AM CST 6:09 PM CST
Civil Twilight 6:48 AM CST 6:41 PM CST
Nautical Twilight 6:12 AM CST 7:17 PM CST
Astronomical Twilight 5:35 AM CST 7:54 PM CST
Moon 6:29 PM CST (2/25) 6:48 AM CST (2/25)
Length of Visible Light 11h 52m
Length of Day
10h 48m
Full, 100% of the Moon is Illuminated
Feb 25
Full
Feb 25
Full
Mar 4
Last Quarter
Mar 11
New
Mar 19
First Quarter

Hourly Weather History & Observations

Time (CST) Temp. Windchill Dew Point Humidity Pressure Visibility Wind Dir Wind Speed Gust Speed Precip Events Conditions
12:15 AM 15.8 °F 10.2 °F 15.8 °F 100% 29.97 in 10.0 mi WNW 3.5 mph - N/A   Clear
12:35 AM 14.0 °F - 14.0 °F 100% 29.97 in 10.0 mi Calm Calm - N/A   Clear
12:55 AM 17.6 °F - 17.6 °F 100% 29.97 in 10.0 mi Calm Calm - N/A   Clear
1:15 AM 19.4 °F 11.5 °F 17.6 °F 93% 29.98 in 10.0 mi WNW 5.8 mph - N/A   Clear
1:35 AM 17.6 °F 10.7 °F 17.6 °F 100% 29.98 in 10.0 mi West 4.6 mph - N/A   Clear
1:55 AM 17.6 °F 12.3 °F 17.6 °F 100% 29.98 in 10.0 mi West 3.5 mph - N/A   Clear
2:15 AM 17.6 °F 9.3 °F 17.6 °F 100% 29.99 in 10.0 mi WNW 5.8 mph - N/A   Clear
2:35 AM 17.6 °F 7.3 °F 17.6 °F 100% 29.99 in 10.0 mi West 8.1 mph 16.1 mph N/A   Clear
2:55 AM 15.8 °F - 15.8 °F 100% 29.99 in 10.0 mi Calm Calm - N/A   Clear
3:15 AM 15.8 °F 8.6 °F 15.8 °F 100% 29.99 in 10.0 mi WSW 4.6 mph - N/A   Clear
3:35 AM 15.8 °F 10.2 °F 15.8 °F 100% 29.98 in - SSE 3.5 mph - N/A   Unknown
3:55 AM 14.0 °F 6.5 °F 14.0 °F 100% 29.98 in 10.0 mi SSW 4.6 mph - N/A   Clear
4:15 AM 12.2 °F 4.3 °F 12.2 °F 100% 29.98 in 10.0 mi WSW 4.6 mph - N/A   Clear
4:35 AM 14.0 °F 5.1 °F 14.0 °F 100% 29.98 in - WSW 5.8 mph - N/A   Unknown
4:55 AM 12.2 °F 6.1 °F 12.2 °F 100% 29.98 in - SW 3.5 mph - N/A   Unknown
5:15 AM 14.0 °F 8.2 °F 14.0 °F 100% 29.98 in - WSW 3.5 mph - N/A   Unknown
5:35 AM 14.0 °F 6.5 °F 14.0 °F 100% 29.98 in - West 4.6 mph - N/A   Unknown
6:15 AM 14.0 °F 6.5 °F 14.0 °F 100% 29.99 in - WSW 4.6 mph - N/A   Unknown
6:35 AM 14.0 °F 8.2 °F 14.0 °F 100% 29.99 in - West 3.5 mph - N/A   Unknown
6:55 AM 14.0 °F - 14.0 °F 100% 29.98 in - Calm Calm - N/A   Unknown
7:15 AM 10.4 °F - 10.4 °F 100% 29.97 in 10.0 mi Calm Calm - N/A   Scattered Clouds
7:35 AM 8.6 °F - 8.6 °F 100% 29.97 in 10.0 mi Calm Calm - N/A   Scattered Clouds
7:55 AM 8.6 °F -1.3 °F 8.6 °F 100% 29.97 in 10.0 mi South 5.8 mph - N/A   Clear
8:15 AM 14.0 °F 5.1 °F 14.0 °F 100% 29.97 in 10.0 mi SSW 5.8 mph - N/A   Clear
8:35 AM 15.8 °F 7.2 °F 14.0 °F 93% 29.96 in 10.0 mi South 5.8 mph - N/A   Clear
8:55 AM 14.0 °F 5.1 °F 12.2 °F 93% 29.97 in 10.0 mi SSE 5.8 mph - N/A   Clear
9:15 AM 15.8 °F 6.1 °F 14.0 °F 93% 29.97 in 10.0 mi SSW 6.9 mph - N/A   Clear
9:35 AM 17.6 °F 12.3 °F 14.0 °F 86% 29.97 in 10.0 mi South 3.5 mph - N/A   Partly Cloudy
9:55 AM 17.6 °F 10.7 °F 14.0 °F 86% 29.96 in 10.0 mi ESE 4.6 mph - N/A   Scattered Clouds
10:15 AM 19.4 °F 11.5 °F 15.8 °F 86% 29.96 in 10.0 mi ESE 5.8 mph - N/A   Scattered Clouds
10:35 AM 23.0 °F 17.0 °F 17.6 °F 80% 29.95 in 10.0 mi ESE 4.6 mph - N/A   Clear
10:55 AM 26.6 °F 18.2 °F 19.4 °F 74% 29.94 in 10.0 mi South 8.1 mph - N/A   Clear
11:15 AM 28.4 °F 20.4 °F 19.4 °F 69% 29.93 in 10.0 mi SSE 8.1 mph - N/A   Clear
11:35 AM 32.0 °F 24.2 °F 17.6 °F 55% 29.91 in 10.0 mi South 9.2 mph - N/A   Clear
11:55 AM 33.8 °F 25.8 °F 17.6 °F 52% 29.91 in 10.0 mi South 10.4 mph - N/A   Clear
12:15 PM 35.6 °F 26.6 °F 15.8 °F 44% 29.91 in 10.0 mi South 13.8 mph 19.6 mph N/A   Clear
12:35 PM 37.4 °F 30.3 °F 17.6 °F 45% 29.90 in 10.0 mi SSW 10.4 mph - N/A   Clear
12:55 PM 37.4 °F 29.8 °F 17.6 °F 45% 29.89 in 10.0 mi SW 11.5 mph - N/A   Clear
1:15 PM 35.6 °F 27.1 °F 17.6 °F 48% 29.89 in 10.0 mi SW 12.7 mph - N/A   Clear
1:35 PM 35.6 °F 28.6 °F 19.4 °F 52% 29.89 in 10.0 mi SW 9.2 mph 17.3 mph N/A   Clear
1:55 PM 35.6 °F 29.9 °F 19.4 °F 52% 29.88 in 10.0 mi SW 6.9 mph - N/A   Clear
2:15 PM 35.6 °F 28.6 °F 19.4 °F 52% 29.87 in 10.0 mi SW 9.2 mph - N/A   Clear
2:35 PM 35.6 °F 28.6 °F 19.4 °F 52% 29.87 in 10.0 mi SW 9.2 mph - N/A   Clear
2:55 PM 35.6 °F 31.7 °F 21.2 °F 56% 29.87 in 10.0 mi SW 4.6 mph - N/A   Clear
3:15 PM 35.6 °F 29.2 °F 21.2 °F 56% 29.87 in 10.0 mi SSW 8.1 mph - N/A   Clear
3:35 PM 35.6 °F 28.6 °F 21.2 °F 56% 29.88 in 10.0 mi SSW 9.2 mph - N/A   Clear
3:55 PM 35.6 °F 29.9 °F 21.2 °F 56% 29.88 in 10.0 mi SW 6.9 mph - N/A   Clear
4:15 PM 35.6 °F 30.7 °F 21.2 °F 56% 29.89 in 10.0 mi SW 5.8 mph - N/A   Clear
4:35 PM 33.8 °F 25.8 °F 23.0 °F 65% 29.88 in 10.0 mi SW 10.4 mph - N/A   Clear
4:55 PM 33.8 °F 29.6 °F 23.0 °F 65% 29.89 in 10.0 mi SE 4.6 mph - N/A   Clear
5:15 PM 33.8 °F 28.6 °F 23.0 °F 65% 29.89 in 10.0 mi South 5.8 mph - N/A   Clear
5:35 PM 32.0 °F 26.4 °F 23.0 °F 69% 29.89 in 10.0 mi SSW 5.8 mph - N/A   Clear
5:55 PM 32.0 °F 26.4 °F 23.0 °F 69% 29.89 in 10.0 mi SE 5.8 mph - N/A   Clear
6:15 PM 30.2 °F 24.3 °F 23.0 °F 75% 29.88 in 10.0 mi ESE 5.8 mph - N/A   Clear
6:35 PM 28.4 °F 23.3 °F 21.2 °F 74% 29.89 in 10.0 mi ESE 4.6 mph - N/A   Clear
6:55 PM 28.4 °F 22.2 °F 21.2 °F 74% 29.89 in 10.0 mi ESE 5.8 mph - N/A   Clear
7:15 PM 28.4 °F 23.3 °F 23.0 °F 80% 29.89 in 10.0 mi South 4.6 mph - N/A   Clear
7:35 PM 24.8 °F 19.1 °F 19.4 °F 80% 29.89 in 10.0 mi East 4.6 mph - N/A   Clear
7:55 PM 26.6 °F 22.6 °F 21.2 °F 80% 29.89 in 10.0 mi SE 3.5 mph - N/A   Clear
8:15 PM 23.0 °F 14.7 °F 19.4 °F 86% 29.89 in 10.0 mi SSE 6.9 mph - N/A   Clear
8:55 PM 21.2 °F 16.4 °F 19.4 °F 93% 29.89 in 10.0 mi SSE 3.5 mph - N/A   Clear
9:15 PM 21.2 °F 14.9 °F 19.4 °F 93% 29.88 in 10.0 mi SE 4.6 mph - N/A   Clear
9:35 PM 26.6 °F 22.6 °F 23.0 °F 86% 29.88 in 10.0 mi SSE 3.5 mph - N/A   Clear
9:55 PM 26.6 °F 21.2 °F 23.0 °F 86% 29.88 in 10.0 mi SSE 4.6 mph - N/A   Clear
10:15 PM 26.6 °F 21.2 °F 23.0 °F 86% 29.88 in 10.0 mi SSE 4.6 mph - N/A   Clear
10:35 PM 30.2 °F 19.3 °F 23.0 °F 75% 29.87 in 10.0 mi SW 15.0 mph 20.7 mph N/A   Clear
10:55 PM 30.2 °F 19.8 °F 23.0 °F 75% 29.87 in 10.0 mi SW 13.8 mph 19.6 mph N/A   Scattered Clouds
11:15 PM 32.0 °F 22.5 °F 19.4 °F 60% 29.87 in 10.0 mi SW 12.7 mph 21.9 mph N/A   Mostly Cloudy
11:35 PM 32.0 °F 21.6 °F 19.4 °F 60% 29.87 in 10.0 mi SW 15.0 mph 20.7 mph N/A   Scattered Clouds
11:55 PM 32.0 °F 21.2 °F 19.4 °F 60% 29.88 in 10.0 mi SW 16.1 mph 21.9 mph N/A   Partly Cloudy